This is the latest recevied weather packets stored in our database for station/object VK2BNC-13. If no packets are shown the sender has not sent any weather packets the latest 10 day(s).
| Time | Temp. | Humidity | Pressure | Rain* | Wind** | Luminosity | Snow |
|---|---|---|---|---|---|---|---|
| 1777990719 | 10° C | 94% | - | 0 mm | - | - | - |
| 1777989817 | 10° C | 93% | - | 0 mm | - | - | - |
| 1777988917 | 10.56° C | 93% | - | 0 mm | - | - | - |
| 1777988014 | 10.56° C | 93% | - | 0 mm | - | - | - |
| 1777987113 | 10.56° C | 93% | - | 0 mm | - | - | - |
| 1777986208 | 11.11° C | 92% | - | 0 mm | - | - | - |
| 1777985307 | 11.11° C | 92% | - | 0 mm | - | - | - |
| 1777984407 | 11.11° C | 91% | - | 0 mm | - | - | - |
| 1777983507 | 11.11° C | 89% | - | 0 mm | - | - | - |
| 1777982606 | 11.67° C | 89% | - | 0 mm | - | - | - |
| 1777981706 | 11.67° C | 88% | - | 0 mm | - | - | - |
| 1777980807 | 12.22° C | 87% | - | 0 mm | - | - | - |
| 1777979906 | 12.78° C | 87% | - | 0 mm | - | - | - |
| 1777979004 | 12.78° C | 86% | - | 0 mm | - | - | - |
| 1777978102 | 13.33° C | 84% | - | 0 mm | - | - | - |
| 1777977201 | 13.33° C | 81% | - | 0 mm | - | - | - |
| 1777976300 | 13.89° C | 80% | - | 0 mm | - | - | - |
| 1777975399 | 14.44° C | 79% | - | 0 mm | - | - | - |
| 1777974494 | 14.44° C | 79% | - | 0 mm | - | - | - |
| 1777973598 | 14.44° C | 77% | - | 0 mm | - | - | - |
| 1777972692 | 14.44° C | 78% | - | 0 mm | - | - | - |
| 1777971793 | 15° C | 77% | - | 0 mm | - | - | - |
| 1777970893 | 15.56° C | 74% | - | 0 mm | - | - | - |
| 1777969993 | 16.67° C | 69% | - | 0 mm | - | - | - |
| 1777969093 | 17.22° C | 68% | - | 0 mm | - | - | - |
* Rain latest hour (hover to see other rain measurements)
** Current wind speed in m/s (hover to see current wind gust speed)